[[{"header":{"parameterUnit":"m.s-1","parameterCategory":1,"la1":30.2991,"la2":30.254,"lo1":-89.0895,"lo2":-89.0444,"dy":0.0017,"dx":0.0017,"nx":28,"ny":28,"refTime":"2024-04-19T03:00:00:Z","depth":0,"parameterNumber":2,"parameterNumberName":"U-component_of_WINDS"},"data":[0,0,0,0,0,0,0,0,0,0,0,0,0,0,0,0,0,0,0,0,0,0,0,0,0,0,0,0,0,0,0,0,0,0,0,0,0,0,0,0,0,0,0,0,0,0,0,0,0,0,0,0,0,0,0,0,0,0,-0.0417,-0.0416,0,-0.0402,-0.0402,-0.0402,-0.0415,-0.0416,-0.0416,-0.0417,-0.04,-0.0399,-0.0398,0,0,0,0,0,0,0,0,0,0,0,0,0,-0.0454,-0.0453,-0.0417,-0.0416,-0.0416,-0.0403,-0.0402,-0.0402,-0.0415,-0.0416,-0.0416,-0.0417,-0.0401,-0.0399,-0.0398,0,0,0,0,0,0,0,0,0,0,0,0,0,-0.0438,-0.0453,-0.0417,-0.0421,-0.0421,-0.0403,-0.0402,-0.0402,-0.0415,-0.0416,-0.0417,-0.0417,-0.0401,-0.04,-0.0398,-0.0374,0,0,-0.0394,-0.0393,0,0,0,0,0,0,0,0,-0.0439,-0.0437,-0.0421,-0.0421,-0.0421,-0.0411,-0.0409,-0.0392,-0.0415,-0.0417,-0.0417,-0.0418,-0.0403,-0.0402,-0.0397,-0.0373,-0.0372,-0.0394,-0.0393,-0.0392,-0.0392,0,0,0,0,0,0,0,-0.044,-0.0437,-0.0411,-0.042,-0.0421,-0.0423,-0.0422,-0.0406,-0.0406,-0.0417,-0.0418,-0.0416,-0.0403,-0.0399,-0.0397,-0.0372,-0.0394,-0.0393,-0.0392,-0.0391,-0.0328,-0.0327,0,0,0,0,0,0,-0.0441,-0.0438,-0.0411,-0.0411,-0.0432,-0.0422,-0.0421,-0.0414,-0.0406,-0.0406,-0.0416,-0.0417,-0.0401,-0.0399,-0.0396,-0.0368,-0.0392,-0.0391,-0.039,-0.0329,-0.0328,-0.0327,0,0,0,0,0,0,-0.0442,-0.0438,-0.0412,-0.0425,-0.0422,-0.0421,-0.0413,-0.0413,-0.0408,-0.0405,-0.0405,-0.0411,-0.0401,-0.0398,-0.038,-0.0368,-0.039,-0.0389,-0.033,-0.0328,-0.0327,-0.0311,0,0,0,0,0,0,-0.0443,-0.0439,-0.0429,-0.0424,-0.0421,-0.0396,-0.0412,-0.0412,-0.0406,-0.0407,-0.04,-0.04,-0.0402,-0.0382,-0.0378,-0.0366,-0.0388,-0.0331,-0.0329,-0.0328,-0.0312,-0.0309,-0.0306,0,0,0,0,0,-0.0444,-0.0425,-0.0429,-0.0426,-0.0409,-0.0395,-0.0393,-0.0396,-0.0405,-0.0396,-0.0394,-0.04,-0.0369,-0.038,-0.0376,-0.0363,-0.0332,-0.033,-0.0328,-0.0314,-0.031,-0.0306,0,0,0,0,0,0,-0.0427,-0.0424,-0.0429,-0.0407,-0.0401,-0.0397,-0.0386,-0.0391,-0.0382,-0.0384,-0.0387,-0.0385,-0.0366,-0.0362,-0.0374,-0.034,-0.0352,-0.0349,-0.0342,-0.0339,-0.0336,-0.0337,-0.0387,0,0,0,0,0,-0.0421,-0.041,-0.0408,-0.0389,-0.0386,-0.0386,-0.038,-0.0383,-0.0377,-0.0374,-0.0371,-0.0364,-0.0353,-0.0346,-0.0335,-0.0312,-0.0311,-0.0301,-0.0298,-0.0296,-0.0293,-0.0282,-0.0278,-0.0321,-0.0321,-0.0321,0,0,-0.0408,-0.0405,-0.0398,-0.0386,-0.0382,-0.037,-0.0384,-0.0371,-0.0362,-0.0372,-0.0354,-0.0352,-0.0344,-0.0324,-0.0314,-0.032,-0.0281,-0.0293,-0.0291,-0.029,-0.0279,-0.0275,-0.0272,-0.0319,-0.032,-0.032,0,0,-0.038,-0.0376,-0.036,-0.0356,-0.035,-0.0351,-0.0347,-0.0342,-0.0341,-0.0324,-0.0331,-0.032,-0.0301,-0.0296,-0.0291,-0.0261,-0.0267,-0.0257,-0.0241,-0.023,-0.0227,-0.0224,-0.0214,-0.021,-0.0255,-0.0255,-0.0255,0,-0.0364,-0.0348,-0.0352,-0.0338,-0.0333,-0.0342,-0.0326,-0.0322,-0.0312,-0.0308,-0.0315,-0.0292,-0.0288,-0.0266,-0.0259,-0.0254,-0.025,-0.0258,-0.0227,-0.0224,-0.0221,-0.0212,-0.0208,-0.0254,-0.0254,-0.0254,-0.0254,0,-0.033,-0.0318,-0.0306,-0.0298,-0.0291,-0.0276,-0.0278,-0.0271,-0.0274,-0.0274,-0.0257,-0.0252,-0.0241,-0.0236,-0.0239,-0.0215,-0.0219,-0.0227,-0.0239,-0.0216,-0.0207,-0.0204,-0.0252,-0.0253,-0.0253,-0.0253,0,0,-0.0289,-0.0284,-0.028,-0.0277,-0.0271,-0.0262,-0.0248,-0.0238,-0.0232,-0.0225,-0.0214,-0.0198,-0.0205,-0.0199,-0.0201,-0.0191,-0.0169,-0.02,-0.02,-0.0195,-0.0144,-0.0139,-0.0135,-0.0173,-0.0172,-0.0172,-0.0145,0,-0.0261,-0.0238,-0.0241,-0.0219,-0.0208,-0.0217,-0.0205,-0.02,-0.02,-0.019,-0.0189,-0.0179,-0.0188,-0.0185,-0.0175,-0.0174,-0.0159,-0.0176,-0.0162,-0.0162,-0.0165,-0.013,-0.0125,-0.0099,-0.0141,-0.0141,-0.014,0,-0.0224,-0.0218,-0.0194,-0.0191,-0.0187,-0.0176,-0.0168,-0.0159,-0.0154,-0.0154,-0.0148,-0.0153,-0.0139,-0.0152,-0.0133,-0.0144,-0.0139,-0.0137,-0.0136,-0.0136,-0.015,-0.0129,-0.0091,-0.0088,-0.0135,-0.0135,-0.0136,0,-0.0199,-0.0183,-0.0168,-0.0165,-0.016,-0.0153,-0.015,-0.0146,-0.014,-0.0133,-0.0129,-0.012,-0.0115,-0.0108,-0.011,-0.0119,-0.0091,-0.0104,-0.0091,-0.0091,-0.0085,-0.0085,-0.0047,-0.0081,-0.0081,-0.0081,-0.0081,0,-0.0167,-0.0152,-0.0156,-0.0147,-0.0131,-0.0135,-0.0119,-0.0118,-0.0114,-0.0104,-0.0111,-0.0101,-0.0104,-0.0095,-0.0096,-0.0081,-0.0078,-0.0078,-0.0079,-0.0078,-0.0078,-0.0075,-0.0077,-0.008,-0.008,-0.008,-0.008,0,-0.0136,-0.0137,-0.0121,-0.0119,-0.0118,-0.0106,-0.0104,-0.0095,-0.0096,-0.0083,-0.0081,-0.0081,-0.007,-0.0071,-0.0059,-0.006,-0.0042,-0.0044,-0.0044,-0.0044,-0.0032,-0.0034,0.001,0.0015,-0.0022,-0.0021,-0.0021,0,-0.0115,-0.0105,-0.0102,-0.0096,-0.0094,-0.0084,-0.0079,-0.0082,-0.0076,-0.007,-0.0062,-0.0052,-0.0045,-0.0028,-0.0027,-0.0018,-0.002,-0.0006,-0.0019,-0.0019,-0.0021,-0.0022,-0.0021,-0.0003,-0.0003,-0.0002,-0.0002,0,-0.008,-0.0082,-0.0074,-0.0067,-0.006,-0.0054,-0.0049,-0.0044,-0.0047,-0.004,-0.003,-0.0025,-0.0013,-0.0003,0.0005,0.0007,0.0002,0.0002,0.0005,0.0006,0.0005,0.0005,-0.0037,0.0001,0.0001,0.0,0.0,0.0,-0.0054,-0.0045,-0.0042,-0.0034,-0.003,-0.0025,-0.0017,-0.0017,-0.0009,-0.0,-0.0003,0.0009,0.0013,0.0023,0.0027,0.0036,0.003,0.0035,0.0036,0.0037,0.0038,0.0004,0.0037,0.0037,0.0037,0.0037,0.0037,0,-0.002,-0.0018,-0.001,-0.0003,0.0003,-0.0003,0.0002,0.0008,0.0018,0.0022,0.0029,0.0041,0.005,0.0051,0.006,0.0066,0.0064,0.0069,0.0068,0.0068,0.0043,0.0039,0.007,0.007,0.007,0.007,0.007,0.007,-0.0001,0.0013,0.0012,0.0027,0.0029,0.0039,0.0042,0.0047,0.005,0.0062,0.0069,0.007,0.0073,0.0082,0.009,0.009,0.0093,0.0098,0.0098,0.0074,0.007,0.0067,0.0063,0.0099,0.0099,0.0122,0.0122,0.0122]},{"header":{"parameterUnit":"m.s-1","parameterCategory":1,"la1":30.2991,"la2":30.254,"lo1":-89.0895,"lo2":-89.0444,"dy":0.0017,"dx":0.0017,"nx":28,"ny":28,"refTime":"2024-04-19T03:00:00:Z","depth":0,"parameterNumber":3,"parameterNumberName":"V-component_of_WINDS"},"data":[0,0,0,0,0,0,0,0,0,0,0,0,0,0,0,0,0,0,0,0,0,0,0,0,0,0,0,0,0,0,0,0,0,0,0,0,0,0,0,0,0,0,0,0,0,0,0,0,0,0,0,0,0,0,0,0,0,0,1.5406,1.5406,0,1.5412,1.5412,1.5413,1.5385,1.5384,1.5383,1.5382,1.5388,1.5388,1.5389,0,0,0,0,0,0,0,0,0,0,0,0,0,1.5368,1.5369,1.5406,1.5406,1.5406,1.5412,1.5412,1.5413,1.5385,1.5384,1.5383,1.5382,1.5387,1.5388,1.5389,0,0,0,0,0,0,0,0,0,0,0,0,0,1.5381,1.537,1.5406,1.5393,1.5392,1.5412,1.5412,1.5413,1.5385,1.5384,1.5383,1.5381,1.5387,1.5388,1.539,1.5422,0,0,1.5394,1.5394,0,0,0,0,0,0,0,0,1.538,1.5382,1.5395,1.5394,1.5393,1.5396,1.5401,1.5416,1.5385,1.5388,1.5382,1.5381,1.5391,1.5392,1.5396,1.5423,1.5423,1.5394,1.5395,1.5395,1.5396,0,0,0,0,0,0,0,1.5379,1.5382,1.5409,1.5395,1.5394,1.5387,1.5387,1.5404,1.5396,1.5387,1.5385,1.5387,1.5391,1.5395,1.5396,1.5423,1.5394,1.5395,1.5396,1.5396,1.5476,1.5477,0,0,0,0,0,0,1.538,1.5381,1.5408,1.5409,1.5383,1.5388,1.5389,1.5397,1.5396,1.5395,1.5388,1.5385,1.5393,1.5395,1.5396,1.5434,1.5395,1.5396,1.5397,1.5475,1.5476,1.5478,0,0,0,0,0,0,1.538,1.5383,1.5408,1.5394,1.5397,1.539,1.5399,1.5397,1.5402,1.5396,1.5395,1.5393,1.5392,1.5394,1.5416,1.5434,1.5397,1.5398,1.5473,1.5475,1.5477,1.5511,0,0,0,0,0,0,1.5379,1.5383,1.5396,1.5395,1.5398,1.5428,1.54,1.5398,1.5404,1.5401,1.5401,1.54,1.5392,1.5414,1.5417,1.5435,1.5399,1.5471,1.5474,1.5476,1.5508,1.5514,1.5519,0,0,0,0,0,1.5377,1.5405,1.5396,1.54,1.5414,1.5429,1.5431,1.5421,1.5406,1.5418,1.5415,1.54,1.5432,1.5417,1.542,1.5439,1.547,1.5473,1.5476,1.5506,1.5513,1.5519,0,0,0,0,0,0,1.5407,1.5404,1.5395,1.5423,1.5427,1.5425,1.544,1.5429,1.5436,1.5433,1.542,1.542,1.5444,1.5443,1.5427,1.547,1.5448,1.5452,1.547,1.5476,1.5481,1.5481,1.54,0,0,0,0,0,1.5417,1.5431,1.5427,1.5452,1.5455,1.5447,1.5454,1.5446,1.5449,1.545,1.5448,1.5451,1.5462,1.5469,1.5478,1.5508,1.5507,1.5522,1.5528,1.5532,1.5535,1.5551,1.5557,1.5487,1.5487,1.5487,0,0,1.5438,1.5438,1.5447,1.5458,1.546,1.5474,1.5449,1.5464,1.5474,1.5452,1.5473,1.5471,1.5474,1.55,1.5511,1.55,1.5555,1.5536,1.5539,1.554,1.5555,1.5561,1.5567,1.5489,1.5489,1.5489,0,0,1.5483,1.5484,1.5505,1.5508,1.5511,1.5506,1.5511,1.551,1.5509,1.5529,1.5513,1.5524,1.5542,1.5545,1.5549,1.5594,1.5581,1.5597,1.5625,1.564,1.5646,1.565,1.5666,1.5672,1.5601,1.5601,1.5601,0,1.5508,1.5528,1.5517,1.5534,1.5539,1.552,1.5541,1.5544,1.555,1.5554,1.5541,1.5564,1.5564,1.559,1.5602,1.5605,1.561,1.5597,1.5646,1.565,1.5655,1.567,1.5676,1.5603,1.5603,1.5602,1.5602,0,1.5559,1.5573,1.559,1.5597,1.5604,1.5622,1.5614,1.5622,1.5613,1.5609,1.563,1.563,1.5639,1.5644,1.5636,1.5669,1.5662,1.5648,1.5626,1.5664,1.5678,1.5683,1.5606,1.5605,1.5604,1.5604,0,0,1.5623,1.5623,1.5629,1.5632,1.5634,1.5645,1.5662,1.5672,1.5679,1.5684,1.5698,1.5714,1.5701,1.5705,1.5696,1.571,1.5746,1.5694,1.5694,1.5703,1.5782,1.5793,1.58,1.5737,1.5738,1.5739,1.5782,0,1.5666,1.5697,1.5688,1.5719,1.5732,1.5713,1.5729,1.5731,1.5728,1.5738,1.5734,1.5746,1.5728,1.573,1.5742,1.5739,1.5761,1.5735,1.575,1.575,1.575,1.5807,1.5819,1.586,1.5787,1.5788,1.5789,0,1.5722,1.5729,1.5761,1.5761,1.5766,1.578,1.5787,1.5798,1.58,1.5797,1.5801,1.579,1.5807,1.5785,1.5807,1.579,1.5795,1.5794,1.5796,1.5797,1.5772,1.581,1.5873,1.5879,1.5798,1.5797,1.5796,0,1.5765,1.5783,1.5804,1.5807,1.5807,1.5818,1.5818,1.5819,1.5825,1.5832,1.5835,1.5844,1.5848,1.5854,1.5845,1.583,1.587,1.5847,1.5867,1.5867,1.5876,1.5876,1.5941,1.588,1.588,1.5879,1.5879,0,1.5815,1.5835,1.5824,1.5837,1.5859,1.5848,1.587,1.5868,1.587,1.5882,1.5866,1.5878,1.5866,1.5876,1.5869,1.5889,1.5891,1.5889,1.5887,1.589,1.589,1.5893,1.589,1.5881,1.5881,1.588,1.588,0,1.5867,1.586,1.5883,1.5881,1.5881,1.5897,1.5896,1.5908,1.5903,1.5919,1.5922,1.5915,1.5926,1.5918,1.5929,1.5925,1.5951,1.5945,1.595,1.5949,1.597,1.5968,1.6039,1.6047,1.5981,1.5981,1.5982,0,1.5899,1.5915,1.5915,1.5922,1.5924,1.5936,1.5942,1.5931,1.5938,1.5942,1.5953,1.5964,1.5971,1.599,1.5986,1.5995,1.5989,1.6013,1.599,1.5993,1.5989,1.5988,1.599,1.6018,1.6018,1.6019,1.6019,0,1.5957,1.5953,1.5963,1.5972,1.5979,1.5985,1.599,1.5997,1.5986,1.5994,1.6006,1.6012,1.6024,1.6034,1.6041,1.6041,1.6029,1.6027,1.6032,1.6036,1.6038,1.6037,1.5963,1.6025,1.6025,1.6024,1.6024,1.6024,1.6001,1.6013,1.6016,1.6027,1.6029,1.6034,1.6045,1.6042,1.6052,1.6061,1.6054,1.6068,1.6069,1.6078,1.6079,1.609,1.608,1.6087,1.6089,1.6091,1.6094,1.6037,1.6091,1.6091,1.6091,1.609,1.609,0,1.6058,1.6058,1.6069,1.6076,1.6085,1.6072,1.6077,1.6085,1.6098,1.6101,1.6108,1.6122,1.6132,1.6128,1.6137,1.6146,1.6141,1.6149,1.6148,1.6148,1.6103,1.6097,1.6153,1.6153,1.6153,1.6153,1.6153,1.6153,1.6089,1.611,1.6106,1.6128,1.6128,1.6142,1.6145,1.6149,1.6152,1.6168,1.6176,1.6174,1.6174,1.6182,1.6191,1.6189,1.6193,1.6204,1.62,1.6158,1.6152,1.6146,1.6141,1.6205,1.6205,1.6245,1.6245,1.6246]}]]